359P/LONEOS (2017)

Japanese version
Home page
Updated on March 3, 2018

---------------------------------------------------------------------

* Profile

Designation 359P/2017 Q2
Recovery Date August 22, 2017
Magnitude 20.6 mag
Recoverer Pan-STARRS 1 telescope (Haleakala)

* Pictures

* Orbital Elements

Epoch 2017 Sept. 4.0 TT = JDT 2458000.5
T 2017 Aug. 20.53129 TT                                 MPCW
q   3.1396984            (2000.0)            P               Q
n   0.09869502     Peri.  200.12326     +0.98180182     +0.16743509
a   4.6373786      Node   149.79864     -0.14053486     +0.95795214
e   0.3229584      Incl.   10.26172     -0.12773073     +0.23300900
P   9.99
From 130 observations 2007 Aug. 21-2018 Jan. 20, mean residual 0".6.

* Magnitudes Graph

        m1 = 13.0 + 5 log d + 10.0 log r  [   ,120]  (             - 2017 Dec. 18)
        m1 = 10.0 + 5 log d + 10.0 log r  [120,   ]  (2017 Dec. 18 -             )

---------------------------------------------------------------------

The orbital elements are published on M.P.E.C. 2018-B155.
The magnitudes graphs are made with Comet for Windows.

---------------------------------------------------------------------

Copyright(C) Seiichi Yoshida (comet@aerith.net). All rights reserved.